Location: Newark
(54.2500°N, 9.1833°E)
Time: 22:55:21
(UTC+00:00)

Transit 4A - Pass Details

Date: 16 December 2019
Orbit: 871 x 973 km, 66.8° (Epoch: 21 January)

Event Time Altitude Azimuth Distance (km) Brightness Sun altitude
Rises 15:48:21 0° 218° (SW) 3,589 12.5 -6.6°
Reaches altitude 10° 15:50:54 10° 219° (SW) 2,633 11.6 -6.9°
Maximum altitude 15:57:02 89° 130° (SE) 920 7.9 -7.7°
Drops below altitude 10° 16:03:02 10° 42° (NE) 2,576 9.6 -8.5°
Enters shadow 16:03:22 - 42° (NE) 2,700 9.7 -8.5°
